When you browse on this site, cookies collect data to enhance your experience and personalize the content and advertising you see.
Visit our Privacy Policy to learn more. By continuing to use the site, you agree to this use of cookies and data.
  • In Österreich
  • Länderverzeichnis
  • Für 7 Tage
  • Wassertemperatur
  • Satellitenkarten
  • Wetterkarte
  • News
  • Widgets
  • user-avatar
    Anmelden

    Stündliche Wetter Bronislav

    Heute, 23 Juli, Dienstag

    Zeit Temperatur Niederschläge Wind Luftdruck Luftfeuchtigkeit
    00:00 +16°C° 0 mm 3 m/S 750 mmHg 95%
    01:00 +14°C° 0 mm 3 m/S 750 mmHg 96%
    02:00 +14°C° 0 mm 3 m/S 750 mmHg 97%
    03:00 +13°C° 0 mm 3 m/S 750 mmHg 96%
    04:00 +13°C° 0 mm 3 m/S 750 mmHg 96%
    05:00 +12°C° 0 mm 3 m/S 750 mmHg 96%
    06:00 +13°C° 0 mm 4 m/S 750 mmHg 94%
    07:00 +14°C° 0 mm 4 m/S 750 mmHg 91%
    08:00 +15°C° 0 mm 4 m/S 750 mmHg 89%
    09:00 +15°C° 0 mm 4 m/S 750 mmHg 86%
    10:00 +17°C° 0 mm 4 m/S 750 mmHg 84%
    11:00 +18°C° 0 mm 4 m/S 749 mmHg 81%
    12:00 +18°C° 0.5 mm 4 m/S 749 mmHg 83%
    13:00 +17°C° 0.5 mm 5 m/S 749 mmHg 85%
    14:00 +17°C° 0.5 mm 5 m/S 749 mmHg 86%
    15:00 +18°C° 0.1 mm 4 m/S 749 mmHg 87%
    16:00 +18°C° 0.1 mm 4 m/S 749 mmHg 87%
    17:00 +19°C° 0.1 mm 3 m/S 749 mmHg 87%
    18:00 +18°C° 0.1 mm 3 m/S 749 mmHg 89%
    19:00 +18°C° 0.1 mm 3 m/S 748 mmHg 90%
    20:00 +17°C° 0.1 mm 3 m/S 748 mmHg 92%
    21:00 +17°C° 0 mm 3 m/S 748 mmHg 93%
    22:00 +16°C° 0 mm 3 m/S 748 mmHg 94%
    23:00 +16°C° 0 mm 3 m/S 748 mmHg 95%

    Morgen, 24 Juli, Mittwoch

    Zeit Temperatur Niederschläge Wind Luftdruck Luftfeuchtigkeit
    00:00 +16°C° 0 mm 3 m/S 748 mmHg 95%
    01:00 +14°C° 0 mm 3 m/S 748 mmHg 96%
    02:00 +14°C° 0 mm 3 m/S 748 mmHg 96%
    03:00 +14°C° 0 mm 3 m/S 748 mmHg 96%
    04:00 +14°C° 0 mm 3 m/S 748 mmHg 96%
    05:00 +14°C° 0 mm 3 m/S 748 mmHg 96%
    06:00 +15°C° 0 mm 4 m/S 748 mmHg 91%
    07:00 +18°C° 0 mm 4 m/S 748 mmHg 86%
    08:00 +19°C° 0 mm 4 m/S 748 mmHg 80%
    09:00 +21°C° 0 mm 4 m/S 749 mmHg 74%
    10:00 +22°C° 0 mm 4 m/S 749 mmHg 68%
    11:00 +25°C° 0 mm 5 m/S 749 mmHg 62%
    12:00 +25°C° 0.1 mm 5 m/S 749 mmHg 60%
    13:00 +26°C° 0.1 mm 5 m/S 749 mmHg 57%
    14:00 +26°C° 0.1 mm 5 m/S 749 mmHg 54%
    15:00 +26°C° 0 mm 5 m/S 749 mmHg 56%
    16:00 +26°C° 0 mm 5 m/S 749 mmHg 58%
    17:00 +25°C° 0 mm 4 m/S 749 mmHg 60%
    18:00 +22°C° 0 mm 4 m/S 749 mmHg 67%
    19:00 +21°C° 0 mm 3 m/S 749 mmHg 73%
    20:00 +19°C° 0 mm 2 m/S 749 mmHg 80%
    21:00 +18°C° 0 mm 3 m/S 749 mmHg 83%
    22:00 +17°C° 0 mm 3 m/S 750 mmHg 85%
    23:00 +16°C° 0 mm 3 m/S 750 mmHg 88%

    übermorgen, 25 Juli, Donnerstag

    Zeit Temperatur Niederschläge Wind Luftdruck Luftfeuchtigkeit
    00:00 +16°C° 0 mm 3 m/S 750 mmHg 87%
    01:00 +15°C° 0 mm 2 m/S 750 mmHg 87%
    02:00 +15°C° 0 mm 2 m/S 750 mmHg 87%
    03:00 +15°C° 0 mm 2 m/S 750 mmHg 87%
    04:00 +14°C° 0 mm 2 m/S 750 mmHg 87%
    05:00 +14°C° 0 mm 2 m/S 751 mmHg 87%
    06:00 +16°C° 0 mm 3 m/S 751 mmHg 81%
    07:00 +18°C° 0 mm 3 m/S 750 mmHg 76%
    08:00 +20°C° 0 mm 3 m/S 750 mmHg 70%
    09:00 +21°C° 0.1 mm 4 m/S 750 mmHg 68%
    10:00 +22°C° 0.1 mm 4 m/S 750 mmHg 65%
    11:00 +23°C° 0.1 mm 4 m/S 750 mmHg 63%
    12:00 +25°C° 0.4 mm 5 m/S 750 mmHg 62%
    13:00 +25°C° 0.4 mm 5 m/S 749 mmHg 61%
    14:00 +25°C° 0.4 mm 5 m/S 749 mmHg 61%
    15:00 +23°C° 0.8 mm 5 m/S 749 mmHg 68%
    16:00 +22°C° 0.8 mm 4 m/S 749 mmHg 76%
    17:00 +21°C° 0.8 mm 4 m/S 748 mmHg 83%
    18:00 +20°C° 0.2 mm 3 m/S 748 mmHg 86%
    19:00 +19°C° 0.2 mm 3 m/S 748 mmHg 89%
    20:00 +18°C° 0.2 mm 2 m/S 748 mmHg 92%
    21:00 +17°C° 0 mm 2 m/S 748 mmHg 93%
    22:00 +17°C° 0 mm 2 m/S 748 mmHg 94%
    23:00 +16°C° 0 mm 2 m/S 748 mmHg 95%

    26 Juli, Freitag

    Zeit Temperatur Niederschläge Wind Luftdruck Luftfeuchtigkeit
    00:00 +15°C° 0 mm 2 m/S 748 mmHg 95%
    01:00 +15°C° 0 mm 2 m/S 748 mmHg 96%
    02:00 +15°C° 0 mm 2 m/S 748 mmHg 96%
    03:00 +14°C° 0 mm 2 m/S 748 mmHg 97%
    04:00 +14°C° 0 mm 2 m/S 748 mmHg 97%
    05:00 +14°C° 0 mm 2 m/S 747 mmHg 97%
    06:00 +15°C° 0 mm 2 m/S 747 mmHg 95%
    07:00 +16°C° 0 mm 2 m/S 747 mmHg 93%
    08:00 +17°C° 0 mm 3 m/S 747 mmHg 91%
    09:00 +17°C° 0.1 mm 3 m/S 747 mmHg 90%
    10:00 +18°C° 0.1 mm 3 m/S 747 mmHg 89%
    11:00 +18°C° 0.1 mm 3 m/S 747 mmHg 87%
    12:00 +19°C° 0.1 mm 3 m/S 747 mmHg 82%
    13:00 +21°C° 0.1 mm 3 m/S 747 mmHg 76%
    14:00 +22°C° 0.1 mm 3 m/S 747 mmHg 71%
    15:00 +22°C° 0.5 mm 3 m/S 747 mmHg 73%
    16:00 +22°C° 0.5 mm 3 m/S 747 mmHg 75%
    17:00 +22°C° 0.5 mm 3 m/S 747 mmHg 78%
    18:00 +21°C° 0.4 mm 3 m/S 747 mmHg 83%
    19:00 +19°C° 0.4 mm 3 m/S 747 mmHg 89%
    20:00 +18°C° 0.4 mm 3 m/S 747 mmHg 94%
    21:00 +17°C° 0 mm 2 m/S 747 mmHg 95%
    22:00 +17°C° 0 mm 2 m/S 747 mmHg 96%
    23:00 +16°C° 0 mm 2 m/S 747 mmHg 96%

    27 Juli, Samstag

    Zeit Temperatur Niederschläge Wind Luftdruck Luftfeuchtigkeit
    00:00 +16°C° 0 mm 2 m/S 747 mmHg 97%
    01:00 +16°C° 0 mm 2 m/S 747 mmHg 97%
    02:00 +16°C° 0 mm 3 m/S 747 mmHg 97%
    03:00 +16°C° 0 mm 3 m/S 747 mmHg 97%
    04:00 +16°C° 0 mm 3 m/S 748 mmHg 98%
    05:00 +16°C° 0 mm 2 m/S 748 mmHg 98%
    06:00 +17°C° 0 mm 3 m/S 748 mmHg 96%
    07:00 +18°C° 0 mm 3 m/S 748 mmHg 94%
    08:00 +19°C° 0 mm 4 m/S 748 mmHg 92%
    09:00 +19°C° 0.2 mm 4 m/S 748 mmHg 90%
    10:00 +20°C° 0.2 mm 4 m/S 748 mmHg 87%
    11:00 +20°C° 0.2 mm 5 m/S 748 mmHg 84%
    12:00 +20°C° 0.1 mm 4 m/S 748 mmHg 83%
    13:00 +21°C° 0.1 mm 4 m/S 748 mmHg 82%
    14:00 +21°C° 0.1 mm 4 m/S 748 mmHg 80%
    15:00 +21°C° 0 mm 3 m/S 748 mmHg 80%
    16:00 +23°C° 0 mm 2 m/S 747 mmHg 79%
    17:00 +23°C° 0 mm 2 m/S 747 mmHg 78%
    18:00 +23°C° 0.4 mm 2 m/S 747 mmHg 82%
    19:00 +21°C° 0.4 mm 2 m/S 747 mmHg 86%
    20:00 +20°C° 0.4 mm 2 m/S 747 mmHg 90%
    21:00 +20°C° 0.1 mm 2 m/S 747 mmHg 92%
    22:00 +19°C° 0.1 mm 2 m/S 747 mmHg 93%
    23:00 +19°C° 0.1 mm 3 m/S 747 mmHg 95%

    28 Juli, Sonntag

    Zeit Temperatur Niederschläge Wind Luftdruck Luftfeuchtigkeit
    00:00 +19°C° 0 mm 2 m/S 747 mmHg 96%
    01:00 +18°C° 0 mm 2 m/S 747 mmHg 96%
    02:00 +18°C° 0 mm 2 m/S 747 mmHg 97%
    03:00 +18°C° 0 mm 2 m/S 747 mmHg 97%
    04:00 +17°C° 0 mm 2 m/S 747 mmHg 97%
    05:00 +17°C° 0 mm 2 m/S 747 mmHg 97%
    06:00 +19°C° 0 mm 2 m/S 747 mmHg 94%
    07:00 +20°C° 0 mm 2 m/S 747 mmHg 90%
    08:00 +23°C° 0 mm 2 m/S 747 mmHg 87%
    09:00 +24°C° 0 mm 3 m/S 748 mmHg 79%
    10:00 +26°C° 0 mm 3 m/S 748 mmHg 71%
    11:00 +28°C° 0 mm 3 m/S 748 mmHg 63%
    12:00 +28°C° 0 mm 3 m/S 747 mmHg 60%
    13:00 +29°C° 0 mm 3 m/S 747 mmHg 57%
    14:00 +29°C° 0 mm 3 m/S 747 mmHg 55%
    15:00 +29°C° 0 mm 3 m/S 746 mmHg 56%
    16:00 +29°C° 0 mm 3 m/S 746 mmHg 58%
    17:00 +29°C° 0 mm 2 m/S 746 mmHg 59%
    18:00 +27°C° 0 mm 2 m/S 746 mmHg 66%
    19:00 +25°C° 0 mm 2 m/S 746 mmHg 73%
    20:00 +23°C° 0 mm 1 m/S 746 mmHg 79%
    21:00 +23°C° 0 mm 2 m/S 746 mmHg 82%
    22:00 +21°C° 0 mm 2 m/S 747 mmHg 86%
    23:00 +20°C° 0 mm 2 m/S 747 mmHg 89%
    Mehr zeigen